Tracking 35274 objects as of 10-Sep-2026
HD Live streaming from Space Station
objects crossing your sky now

SL-12 R/B(AUX MOTOR)


SL-12 R/B(AUX MOTOR) is no longer on orbit


NORAD ID: 11801
Int'l Code: 1980-016E
Launch date: February 20, 1980
Source: Commonwealth of Independent States (former USSR) (CIS)
Launch site: TYURATAM MISSILE AND SPACE COMPLEX (TTMTR)
Decay date: 1981-01-12

Note: This is a ROCKET BODY
Your satellite tracking list
Your tracking list is empty




NASA's NSSDC Master Catalog

Two Line Element Set (TLE):
1 11801U 80016  E 80155.47263161  .00048258 +08351-5 +00557-4 0  9995
2 11801 046.9868 251.2312 7335701 027.4634 356.9987 02.24663258001873
Source of the keplerian elements: AFSPC